LA5PPA-1 Weather Reports


time (UTC)temp
C
wind
direction
speed
KPH
gust
KPH
rain 1hr
cm
rain 24hr
cm
rain mn
cm
humidity
%
barometer
mb
20260507114151 7 189 0.0 8.0 0.00 0.00 0.00 34 1021.1
20260507113651 7 112 0.0 8.0 0.00 0.00 0.00 35 1021.1
20260507113151 6 12 0.0 9.7 0.00 0.00 0.00 36 1020.9
20260507112651 6 130 0.0 9.7 0.00 0.00 0.00 37 1021.0
20260507112151 5 302 4.8 11.3 0.00 0.00 0.00 37 1021.0
20260507111651 6 323 9.7 12.9 0.00 0.00 0.00 33 1021.0
20260507111151 6 300 4.8 17.7 0.00 0.00 0.00 35 1020.9
20260507110651 6 347 0.0 12.9 0.00 0.00 0.00 36 1021.0
20260507110151 5 315 0.0 12.9 0.00 0.00 0.00 36 1020.9
20260507105651 5 288 0.0 11.3 0.00 0.00 0.00 37 1020.9
20260507105151 5 310 11.3 14.5 0.00 0.00 0.00 33 1020.9
20260507104651 6 302 0.0 11.3 0.00 0.00 0.00 32 1020.9
20260507104151 6 296 6.4 8.0 0.00 0.00 0.00 33 1020.8
20260507103651 6 281 4.8 14.5 0.00 0.00 0.00 32 1020.8
20260507103151 6 268 6.4 14.5 0.00 0.00 0.00 34 1020.8
20260507102651 6 185 3.2 9.7 0.00 0.00 0.00 40 1020.8
20260507102152 6 298 4.8 12.9 0.00 0.00 0.00 37 1020.8
20260507101651 6 220 6.4 6.4 0.00 0.00 0.00 38 1020.8
20260507101151 6 286 4.8 11.3 0.00 0.00 0.00 39 1020.6
20260507100651 6 299 8.0 14.5 0.00 0.00 0.00 38 1020.6
20260507100151 5 151 3.2 8.0 0.00 0.00 0.00 41 1020.5
20260507095651 5 180 0.0 0.0 0.00 0.00 0.00 41 1020.5
20260507095151 5 180 0.0 8.0 0.00 0.00 0.00 42 1020.5
20260507094651 5 313 0.0 8.0 0.00 0.00 0.00 44 1020.5
20260507094151 4 316 1.6 9.7 0.00 0.00 0.00 42 1020.5
20260507093651 4 330 1.6 12.9 0.00 0.00 0.00 41 1020.4
20260507093151 5 300 4.8 9.7 0.00 0.00 0.00 40 1020.4
20260507092651 5 312 0.0 8.0 0.00 0.00 0.00 44 1020.4
20260507092151 4 284 3.2 9.7 0.00 0.00 0.00 43 1020.4
20260507091651 4 277 4.8 11.3 0.00 0.00 0.00 43 1020.5
20260507091151 5 234 3.2 8.0 0.00 0.00 0.00 42 1020.4
20260507090651 4 265 0.0 12.9 0.00 0.00 0.00 42 1020.5
20260507090151 4 153 0.0 4.8 0.00 0.00 0.00 45 1020.4
20260507085651 3 146 1.6 6.4 0.00 0.00 0.00 43 1020.4
20260507085151 3 64 0.0 9.7 0.00 0.00 0.00 45 1020.4
20260507084651 3 312 0.0 6.4 0.00 0.00 0.00 46 1020.5
20260507084151 2 313 3.2 6.4 0.00 0.00 0.00 49 1020.3
20260507083651 2 316 0.0 8.0 0.00 0.00 0.00 49 1020.4
20260507083151 2 309 6.4 9.7 0.00 0.00 0.00 48 1020.4
20260507082651 2 331 1.6 11.3 0.00 0.00 0.00 50 1020.3
20260507082151 1 300 9.7 14.5 0.00 0.00 0.00 49 1020.3
20260507081651 2 322 3.2 6.4 0.00 0.00 0.00 50 1020.2
20260507081151 1 291 4.8 8.0 0.00 0.00 0.00 50 1020.2
20260507080651 1 261 0.0 14.5 0.00 0.00 0.00 50 1020.2
20260507080151 1 285 1.6 9.7 0.00 0.00 0.00 50 1020.0
20260507075651 1 295 4.8 11.3 0.00 0.00 0.00 50 1020.0
20260507075151 0 337 0.0 9.7 0.00 0.00 0.00 52 1020.1
20260507074651 0 312 0.0 11.3 0.00 0.00 0.00 54 1020.0
20260507074151 0 334 8.0 14.5 0.00 0.00 0.00 51 1020.0
20260507073651 0 261 0.0 0.0 0.00 0.00 0.00 54 1020.1
20260507073151 0 261 0.0 4.8 0.00 0.00 0.00 56 1020.1
20260507072651 0 46 0.0 12.9 0.00 0.00 0.00 57 1020.0
20260507072151 0 351 0.0 11.3 0.00 0.00 0.00 55 1020.0
20260507071651 0 323 11.3 12.9 0.00 0.00 0.00 56 1020.0
20260507071151 0 302 4.8 9.7 0.00 0.00 0.00 57 1020.0
20260507070652 0 319 6.4 11.3 0.00 0.00 0.00 58 1020.0
20260507070152 0 329 8.0 8.0 0.00 0.00 0.00 58 1019.9
20260507065652 -1 337 1.6 8.0 0.00 0.00 0.00 59 1019.9
20260507065152 -1 278 1.6 9.7 0.00 0.00 0.00 59 1019.9
20260507064652 -1 313 0.0 6.4 0.00 0.00 0.00 60 1019.8
20260507064152 -1 260 0.0 1.6 0.00 0.00 0.00 63 1019.8
20260507063652 -1 236 0.0 3.2 0.00 0.00 0.00 63 1019.8
20260507063152 -1 306 0.0 4.8 0.00 0.00 0.00 63 1019.8
20260507062652 -2 279 0.0 8.0 0.00 0.00 0.00 64 1019.8
20260507062152 -2 272 0.0 0.0 0.00 0.00 0.00 65 1019.8
20260507061652 -2 272 0.0 4.8 0.00 0.00 0.00 65 1019.6
20260507061152 -2 302 0.0 3.2 0.00 0.00 0.00 66 1019.6
20260507060652 -2 324 0.0 0.0 0.00 0.00 0.00 65 1019.5
20260507060152 -2 324 0.0 0.0 0.00 0.00 0.00 65 1019.4
20260507055652 -2 324 0.0 0.0 0.00 0.00 0.00 67 1019.6
20260507055152 -2 295 0.0 0.0 0.00 0.00 0.00 69 1019.5
20260507054652 -3 295 0.0 3.2 0.00 0.00 0.00 69 1019.6
20260507054152 -3 272 0.0 1.6 0.00 0.00 0.00 70 1019.6
20260507053652 -3 284 1.6 3.2 0.00 0.00 0.00 70 1019.5
20260507053152 -3 300 0.0 4.8 0.00 0.00 0.00 70 1019.5
20260507052652 -3 306 0.0 6.4 0.00 0.00 0.00 71 1019.5
20260507052152 -3 292 0.0 3.2 0.00 0.00 0.00 72 1019.4
20260507051652 -3 300 0.0 0.0 0.00 0.00 0.00 72 1019.4
20260507051152 -4 300 0.0 0.0 0.00 0.00 0.00 73 1019.4
20260507050652 -4 300 0.0 6.4 0.00 0.00 0.00 74 1019.4
20260507050152 -5 310 0.0 0.0 0.00 0.00 0.00 75 1019.3
20260507045652 -5 310 0.0 0.0 0.00 0.00 0.00 76 1019.3
20260507045152 -5 310 0.0 0.0 0.00 0.00 0.00 77 1019.2
20260507044652 -5 310 0.0 0.0 0.00 0.00 0.00 77 1019.2
20260507044152 -5 310 0.0 0.0 0.00 0.00 0.00 78 1019.2
20260507043652 -5 310 0.0 0.0 0.00 0.00 0.00 79 1019.2
20260507043152 -6 310 0.0 0.0 0.00 0.00 0.00 80 1019.1
20260507042652 -6 310 0.0 1.6 0.00 0.00 0.00 80 1019.1
20260507042152 -6 306 1.6 3.2 0.00 0.00 0.00 81 1019.1
20260507041652 -6 106 0.0 0.0 0.00 0.00 0.00 81 1019.0
20260507041152 -7 106 0.0 0.0 0.00 0.00 0.00 82 1019.1
20260507040652 -7 106 0.0 0.0 0.00 0.00 0.00 82 1019.0
20260507040152 -7 106 0.0 0.0 0.00 0.00 0.00 81 1018.9
20260507035652 -7 106 0.0 0.0 0.00 0.00 0.00 82 1018.9
20260507035152 -7 106 0.0 0.0 0.00 0.00 0.00 82 1018.9
20260507034652 -7 106 0.0 0.0 0.00 0.00 0.00 82 1018.7
20260507034152 -7 106 0.0 0.0 0.00 0.00 0.00 82 1018.7
20260507033652 -7 106 0.0 0.0 0.00 0.00 0.00 82 1018.7
20260507033152 -7 106 0.0 0.0 0.00 0.00 0.00 82 1018.7
20260507032652 -7 106 0.0 0.0 0.00 0.00 0.00 82 1018.7
20260507032152 -7 106 0.0 0.0 0.00 0.00 0.00 81 1018.7
20260507031652 -7 106 0.0 0.0 0.00 0.00 0.00 81 1018.9
20260507031152 -7 106 0.0 0.0 0.00 0.00 0.00 81 1018.7
20260507030652 -7 106 0.0 0.0 0.00 0.00 0.00 81 1018.7
20260507030152 -7 106 0.0 0.0 0.00 0.00 0.00 81 1018.6
20260507025652 -7 106 0.0 0.0 0.00 0.00 0.00 80 1018.6
20260507025152 -7 106 0.0 0.0 0.00 0.00 0.00 80 1018.6
20260507024652 -7 106 0.0 0.0 0.00 0.00 0.00 80 1018.6
20260507024152 -7 106 0.0 0.0 0.00 0.00 0.00 80 1018.6
20260507023652 -7 106 0.0 0.0 0.00 0.00 0.00 80 1018.6
20260507023152 -7 106 0.0 0.0 0.00 0.00 0.00 80 1018.6
20260507022652 -7 106 0.0 0.0 0.00 0.00 0.00 79 1018.5
20260507022152 -7 106 0.0 0.0 0.00 0.00 0.00 79 1018.4
20260507021652 -7 106 0.0 0.0 0.00 0.00 0.00 79 1018.5
20260507021152 -7 106 0.0 0.0 0.00 0.00 0.00 79 1018.4
20260507020652 -7 106 0.0 0.0 0.00 0.00 0.00 78 1018.4
20260507020152 -7 106 0.0 0.0 0.00 0.00 0.00 78 1018.4
20260507015652 -7 106 0.0 0.0 0.00 0.00 0.00 78 1018.4
20260507015152 -7 106 0.0 0.0 0.00 0.00 0.00 78 1018.4
20260507014652 -7 106 0.0 0.0 0.00 0.00 0.00 78 1018.3
20260507014152 -7 106 0.0 0.0 0.00 0.00 0.00 77 1018.4
20260507013652 -7 106 0.0 0.0 0.00 0.00 0.00 77 1018.4
20260507013152 -7 106 0.0 0.0 0.00 0.00 0.00 77 1018.4
20260507012652 -7 106 0.0 0.0 0.00 0.00 0.00 77 1018.3
20260507012152 -6 106 0.0 0.0 0.00 0.00 0.00 76 1018.3
20260507011652 -6 106 0.0 0.0 0.00 0.00 0.00 76 1018.2
20260507011152 -6 106 0.0 0.0 0.00 0.00 0.00 76 1018.2
20260507010652 -6 106 0.0 0.0 0.00 0.00 0.00 76 1018.2
20260507010152 -6 106 0.0 0.0 0.00 0.00 0.00 75 1018.2
20260507005652 -6 106 0.0 0.0 0.00 0.00 0.00 75 1018.2
20260507005152 -6 106 0.0 0.0 0.00 0.00 0.00 74 1018.2
20260507004652 -6 106 0.0 4.8 0.00 0.00 0.00 74 1018.2
20260507004152 -6 135 4.8 4.8 0.00 0.00 0.00 74 1018.2
20260507003652 -6 313 0.0 0.0 0.00 0.00 0.00 73 1018.1
20260507003152 -6 313 0.0 0.0 0.00 0.00 0.00 73 1018.1
20260507002652 -5 313 0.0 0.0 0.00 0.00 0.00 72 1018.1
20260507002152 -5 313 0.0 0.0 0.00 0.00 0.00 71 1018.1
20260507001652 -5 313 0.0 0.0 0.00 0.00 0.00 71 1018.1
20260507001152 -5 313 0.0 0.0 0.00 0.00 0.00 71 1018.0
20260507000853 -5 313 0.0 0.0 0.00 0.00 0.00 70 1018.0
20260507000652 -5 313 0.0 0.0 0.00 0.00 0.00 70 1018.0
20260507000152 -5 313 0.0 0.0 0.00 0.00 0.00 70 1018.1
20260506235652 -5 313 0.0 0.0 0.00 0.00 0.00 69 1018.0
20260506235152 -4 313 0.0 0.0 0.00 0.00 0.00 69 1018.0
20260506234652 -4 313 0.0 0.0 0.00 0.00 0.00 68 1018.0
20260506234152 -3 313 0.0 0.0 0.00 0.00 0.00 68 1018.0
20260506233652 -3 313 0.0 0.0 0.00 0.00 0.00 67 1017.8
20260506233152 -3 313 0.0 0.0 0.00 0.00 0.00 67 1018.0
20260506232652 -3 313 0.0 0.0 0.00 0.00 0.00 67 1018.0
20260506232152 -3 313 0.0 3.2 0.00 0.00 0.00 67 1018.0
20260506231652 -3 320 1.6 4.8 0.00 0.00 0.00 67 1017.8
20260506231152 -3 348 0.0 6.4 0.00 0.00 0.00 67 1017.8
20260506230652 -3 340 4.8 6.4 0.00 0.00 0.00 67 1017.8
20260506230152 -3 323 3.2 9.7 0.00 0.00 0.00 66 1017.8
20260506225652 -3 319 3.2 8.0 0.00 0.00 0.00 66 1017.8
20260506225152 -3 319 3.2 8.0 0.00 0.00 0.00 66 1017.8
20260506224652 -3 333 8.0 9.7 0.00 0.00 0.00 67 1017.7
20260506224152 -3 317 4.8 9.7 0.00 0.00 0.00 67 1017.7
20260506223652 -3 320 4.8 9.7 0.00 0.00 0.00 67 1017.7
20260506223152 -3 313 3.2 11.3 0.00 0.00 0.00 67 1017.7
20260506222953 -3 309 8.0 11.3 0.00 0.00 0.00 67 1017.7
20260506222652 -3 313 6.4 11.3 0.00 0.00 0.00 66 1017.7
20260506222152 -3 316 6.4 11.3 0.00 0.00 0.00 66 1017.7
20260506221652 -2 319 4.8 11.3 0.00 0.00 0.00 66 1017.6
20260506221152 -2 305 3.2 16.1 0.00 0.00 0.00 66 1017.6
20260506220753 -2 289 6.4 14.5 0.00 0.00 0.00 66 1017.5
20260506220152 -2 315 6.4 12.9 0.00 0.00 0.00 66 1017.4
20260506215652 -2 319 9.7 16.1 0.00 0.00 0.00 65 1017.5
20260506215152 -2 323 8.0 12.9 0.00 0.00 0.00 65 1017.5
20260506214652 -2 309 0.0 4.8 0.00 0.00 0.00 65 1017.6
20260506214554 -2 309 0.0 4.8 0.00 0.00 0.00 65 1017.5
20260506214152 -2 323 3.2 9.7 0.00 0.00 0.00 64 1017.5
20260506213653 -2 278 3.2 11.3 0.00 0.00 0.00 65 1017.5
20260506213454 -2 331 6.4 8.0 0.00 0.00 0.00 65 1017.5
20260506213152 -2 306 1.6 8.0 0.00 0.00 0.00 64 1017.4
20260506212652 -2 319 0.0 0.0 0.00 0.00 0.00 63 1017.5
20260506212354 -2 319 0.0 4.8 0.00 0.00 0.00 63 1017.5
20260506212152 -2 319 0.0 4.8 0.00 0.00 0.00 63 1017.5
20260506211653 -2 307 0.0 0.0 0.00 0.00 0.00 62 1017.5
20260506211254 -2 307 0.0 0.0 0.00 0.00 0.00 61 1017.5
20260506211153 -2 307 0.0 0.0 0.00 0.00 0.00 61 1017.5
20260506210653 -2 307 0.0 1.6 0.00 0.00 0.00 61 1017.5
20260506210153 -2 305 0.0 0.0 0.00 0.00 0.00 61 1017.4
20260506205653 -2 305 0.0 6.4 0.00 0.00 0.00 60 1017.5
20260506205153 -2 310 4.8 11.3 0.00 0.00 0.00 60 1017.4
20260506205054 -2 319 3.2 11.3 0.00 0.00 0.00 60 1017.5
20260506204653 -2 298 4.8 11.3 0.00 0.00 0.00 60 1017.6
20260506204153 -2 255 0.0 6.4 0.00 0.00 0.00 59 1017.5
20260506203954 -2 323 0.0 6.4 0.00 0.00 0.00 58 1017.6
20260506203653 -2 329 0.0 11.3 0.00 0.00 0.00 58 1017.6
20260506203153 -1 265 0.0 6.4 0.00 0.00 0.00 58 1017.5
20260506202854 -1 316 1.6 6.4 0.00 0.00 0.00 58 1017.4
20260506202653 -1 291 1.6 8.0 0.00 0.00 0.00 58 1017.3
20260506202153 -1 324 8.0 12.9 0.00 0.00 0.00 58 1017.3
20260506201754 -1 323 3.2 6.4 0.00 0.00 0.00 57 1017.3
20260506201653 -1 293 6.4 6.4 0.00 0.00 0.00 57 1017.4
20260506201153 -1 316 0.0 6.4 0.00 0.00 0.00 57 1017.4
20260506200653 -1 313 0.0 8.0 0.00 0.00 0.00 57 1017.4
20260506200153 -1 313 0.0 9.7 0.00 0.00 0.00 56 1017.4
20260506195653 -1 315 1.6 8.0 0.00 0.00 0.00 56 1017.5
20260506195554 -1 315 1.6 8.0 0.00 0.00 0.00 56 1017.4
20260506195153 -1 340 3.2 6.4 0.00 0.00 0.00 56 1017.4
20260506194653 -1 0 0.0 3.2 0.00 0.00 0.00 55 1017.4
20260506194454 -1 0 0.0 8.0 0.00 0.00 0.00 55 1017.4
20260506194153 -1 324 1.6 8.0 0.00 0.00 0.00 55 1017.4
20260506193653 -1 341 3.2 6.4 0.00 0.00 0.00 54 1017.4
20260506193354 -1 327 0.0 8.0 0.00 0.00 0.00 54 1017.4
20260506193153 -1 327 0.0 9.7 0.00 0.00 0.00 54 1017.3
20260506192653 0 323 9.7 12.9 0.00 0.00 0.00 53 1017.3
20260506192254 0 303 4.8 12.9 0.00 0.00 0.00 52 1017.3
20260506192153 0 316 4.8 12.9 0.00 0.00 0.00 52 1017.3
20260506191653 0 324 8.0 12.9 0.00 0.00 0.00 51 1017.4
20260506191153 0 313 9.7 9.7 0.00 0.00 0.00 49 1017.4
20260506190653 1 315 8.0 9.7 0.00 0.00 0.00 48 1017.4
20260506190153 1 340 0.0 11.3 0.00 0.00 0.00 46 1017.3
20260506190054 1 331 1.6 11.3 0.00 0.00 0.00 46 1017.3
20260506185653 1 358 0.0 4.8 0.00 0.00 0.00 48 1017.3
20260506185153 1 337 0.0 12.9 0.00 0.00 0.00 49 1017.3
20260506184954 1 323 4.8 12.9 0.00 0.00 0.00 48 1017.3
20260506184653 1 293 1.6 11.3 0.00 0.00 0.00 48 1017.3
20260506184153 1 322 1.6 11.3 0.00 0.00 0.00 48 1017.2
20260506183854 1 322 4.8 16.1 0.00 0.00 0.00 49 1017.2
20260506183653 1 327 4.8 16.1 0.00 0.00 0.00 49 1017.1
20260506183153 1 315 6.4 14.5 0.00 0.00 0.00 49 1017.1
20260506182754 1 299 3.2 14.5 0.00 0.00 0.00 49 1017.2
20260506182653 1 312 8.0 12.9 0.00 0.00 0.00 49 1017.1
20260506182153 1 312 9.7 12.9 0.00 0.00 0.00 49 1017.1
20260506181653 1 305 4.8 12.9 0.00 0.00 0.00 49 1017.1
20260506181153 1 289 3.2 14.5 0.00 0.00 0.00 49 1017.1
20260506180653 1 284 14.5 14.5 0.00 0.00 0.00 50 1016.9
20260506180554 1 262 3.2 11.3 0.00 0.00 0.00 49 1017.1
20260506180153 1 315 4.8 16.1 0.00 0.00 0.00 49 1016.9
20260506175653 1 300 6.4 14.5 0.00 0.00 0.00 49 1016.9
20260506175454 1 320 6.4 14.5 0.00 0.00 0.00 49 1017.1
20260506175153 1 288 6.4 22.5 0.00 0.00 0.00 48 1016.9
20260506174653 1 257 6.4 20.9 0.00 0.00 0.00 46 1017.1
20260506174354 1 320 8.0 19.3 0.00 0.00 0.00 45 1017.1
20260506174153 1 312 12.9 17.7 0.00 0.00 0.00 45 1016.9
20260506173653 1 286 12.9 17.7 0.00 0.00 0.00 42 1016.8
20260506173254 1 316 8.0 14.5 0.00 0.00 0.00 43 1016.9
20260506173153 1 312 4.8 14.5 0.00 0.00 0.00 42 1016.8
20260506172653 2 319 9.7 19.3 0.00 0.00 0.00 41 1016.7
20260506172153 2 319 8.0 14.5 0.00 0.00 0.00 39 1016.8
20260506171653 2 299 4.8 14.5 0.00 0.00 0.00 40 1016.7
20260506171153 2 277 3.2 16.1 0.00 0.00 0.00 41 1016.6
20260506171054 2 327 6.4 16.1 0.00 0.00 0.00 41 1016.6
20260506170653 2 302 1.6 12.9 0.00 0.00 0.00 42 1016.7
20260506170153 2 330 6.4 24.1 0.00 0.00 0.00 40 1016.7
20260506165954 2 334 8.0 24.1 0.00 0.00 0.00 41 1016.7
20260506165653 2 317 9.7 17.7 0.00 0.00 0.00 41 1016.7
20260506165153 2 300 11.3 19.3 0.00 0.00 0.00 41 1016.7
20260506164854 2 217 3.2 24.1 0.00 0.00 0.00 41 1016.7
20260506164653 2 306 11.3 24.1 0.00 0.00 0.00 41 1016.6
20260506164153 2 277 4.8 24.1 0.00 0.00 0.00 41 1016.6
20260506163754 2 298 16.1 16.1 0.00 0.00 0.00 42 1016.7
20260506163653 2 285 6.4 14.5 0.00 0.00 0.00 42 1016.7
20260506163153 2 299 0.0 12.9 0.00 0.00 0.00 40 1016.6
20260506162653 2 323 9.7 12.9 0.00 0.00 0.00 38 1016.6
20260506162153 2 258 1.6 16.1 0.00 0.00 0.00 39 1016.7
20260506161653 2 288 6.4 19.3 0.00 0.00 0.00 38 1016.6
20260506161554 2 309 9.7 25.7 0.00 0.00 0.00 37 1016.7
20260506161153 2 305 14.5 25.7 0.00 0.00 0.00 38 1016.7
20260506160653 2 292 3.2 17.7 0.00 0.00 0.00 37 1016.7
20260506160455 2 299 8.0 17.7 0.00 0.00 0.00 37 1016.7
20260506160153 3 312 14.5 14.5 0.00 0.00 0.00 37 1016.7
20260506155653 3 303 3.2 16.1 0.00 0.00 0.00 36 1016.8
20260506155354 3 281 6.4 22.5 0.00 0.00 0.00 35 1016.8
20260506155153 3 305 8.0 22.5 0.00 0.00 0.00 35 1016.8
20260506154653 4 316 4.8 20.9 0.00 0.00 0.00 35 1016.7
20260506154254 4 320 9.7 24.1 0.00 0.00 0.00 37 1016.7
20260506154153 4 234 4.8 24.1 0.00 0.00 0.00 37 1016.8
20260506153653 4 329 6.4 22.5 0.00 0.00 0.00 36 1016.7
20260506153153 4 264 6.4 19.3 0.00 0.00 0.00 36 1016.8
20260506152653 4 248 12.9 19.3 0.00 0.00 0.00 35 1016.8
20260506152153 4 310 8.0 20.9 0.00 0.00 0.00 33 1016.7
20260506152054 4 291 9.7 20.9 0.00 0.00 0.00 34 1016.7
20260506151653 4 319 12.9 17.7 0.00 0.00 0.00 36 1016.6
20260506151153 3 303 9.7 20.9 0.00 0.00 0.00 36 1016.6
20260506150954 3 267 14.5 20.9 0.00 0.00 0.00 35 1016.7
20260506150653 3 302 8.0 19.3 0.00 0.00 0.00 36 1016.7
20260506150153 3 302 14.5 22.5 0.00 0.00 0.00 35 1016.8
20260506145854 4 315 11.3 25.7 0.00 0.00 0.00 35 1016.8
20260506145653 3 289 22.5 25.7 0.00 0.00 0.00 35 1016.8
20260506145153 3 288 6.4 16.1 0.00 0.00 0.00 39 1016.8
20260506144755 3 309 8.0 22.5 0.00 0.00 0.00 38 1016.8
20260506144653 3 306 8.0 22.5 0.00 0.00 0.00 38 1016.9
20260506144153 3 291 4.8 19.3 0.00 0.00 0.00 38 1016.9
20260506143653 3 296 12.9 25.7 0.00 0.00 0.00 37 1016.8
20260506143153 4 299 11.3 22.5 0.00 0.00 0.00 36 1016.9
20260506142653 4 302 6.4 17.7 0.00 0.00 0.00 35 1016.8
20260506142554 4 289 8.0 17.7 0.00 0.00 0.00 36 1016.8
20260506142153 3 298 6.4 17.7 0.00 0.00 0.00 35 1016.8
20260506141653 4 303 12.9 19.3 0.00 0.00 0.00 36 1016.7
20260506141454 4 282 14.5 19.3 0.00 0.00 0.00 35 1016.7
20260506141153 4 264 16.1 17.7 0.00 0.00 0.00 35 1016.7
20260506140653 3 313 4.8 14.5 0.00 0.00 0.00 38 1016.7
20260506140354 3 320 4.8 9.7 0.00 0.00 0.00 41 1016.7
20260506140153 3 307 6.4 9.7 0.00 0.00 0.00 39 1016.7
20260506135653 3 293 1.6 14.5 0.00 0.00 0.00 38 1016.7
20260506135254 3 330 6.4 16.1 0.00 0.00 0.00 39 1016.7
20260506135153 2 285 4.8 16.1 0.00 0.00 0.00 37 1016.7
20260506134653 3 319 12.9 12.9 0.00 0.00 0.00 37 1016.7
20260506134153 2 262 1.6 11.3 0.00 0.00 0.00 39 1016.7
20260506133653 2 286 3.2 12.9 0.00 0.00 0.00 38 1016.7
20260506133153 2 257 4.8 16.1 0.00 0.00 0.00 38 1016.7
20260506133054 3 299 6.4 14.5 0.00 0.00 0.00 38 1016.8
20260506132653 2 272 9.7 11.3 0.00 0.00 0.00 38 1016.8
20260506132153 3 306 1.6 9.7 0.00 0.00 0.00 38 1016.9
20260506131954 3 288 4.8 9.7 0.00 0.00 0.00 38 1016.8
20260506131653 3 305 0.0 8.0 0.00 0.00 0.00 39 1016.8
20260506131153 2 243 0.0 11.3 0.00 0.00 0.00 38 1016.8
20260506130854 2 315 4.8 11.3 0.00 0.00 0.00 38 1016.8
20260506130653 2 298 4.8 11.3 0.00 0.00 0.00 39 1016.8
20260506130154 2 298 0.0 14.5 0.00 0.00 0.00 38 1016.9
20260506125755 2 277 12.9 14.5 0.00 0.00 0.00 37 1016.8
20260506125653 3 307 11.3 16.1 0.00 0.00 0.00 39 1016.9
20260506125153 3 303 11.3 17.7 0.00 0.00 0.00 38 1016.8
20260506124653 3 292 6.4 19.3 0.00 0.00 0.00 36 1016.7
20260506124153 4 313 6.4 11.3 0.00 0.00 0.00 36 1016.6
20260506123653 4 268 1.6 16.1 0.00 0.00 0.00 35 1016.5
20260506123554 4 312 4.8 16.1 0.00 0.00 0.00 35 1016.6
20260506123153 5 300 6.4 14.5 0.00 0.00 0.00 34 1016.7
20260506122653 4 300 4.8 16.1 0.00 0.00 0.00 35 1016.7
20260506122454 4 14 4.8 12.9 0.00 0.00 0.00 38 1016.6
20260506122153 3 164 0.0 12.9 0.00 0.00 0.00 39 1016.7
20260506121653 3 319 11.3 17.7 0.00 0.00 0.00 39 1016.8
20260506121354 3 288 4.8 14.5 0.00 0.00 0.00 38 1016.8
20260506121153 3 334 9.7 12.9 0.00 0.00 0.00 39 1016.8
20260506120653 3 312 6.4 12.9 0.00 0.00 0.00 39 1016.8
20260506120255 3 164 4.8 9.7 0.00 0.00 0.00 41 1016.8
20260506120154 3 282 1.6 9.7 0.00 0.00 0.00 41 1016.8
20260506115653 3 302 4.8 12.9 0.00 0.00 0.00 42 1016.8
20260506115154 3 268 8.0 12.9 0.00 0.00 0.00 39 1016.8
20260506114653 3 306 6.4 16.1 0.00 0.00 0.00 41 1016.7